SCP
-0 -0 -0 -0 -0 -0 0 -0 0 -0 -0 0 0 -0 -0 -0 -0 0 0 0 0 0 0 0 0 0 0 0 0 0 0 0 0 0 0 0 0 0 0 0 0 0 0 0 0
-0 -0 -0 -0 -0 -0 -0 -0 -0 -0 -0 -0 -0 -0 -0 -0 -0 0 0 0 0 0 0 0 0 0 0 0 0 0 0 0 0 0 0 0 0 0 0 0 0 0 0 0 0
-0 -0 -0 -0 -0 -0 -0 -0 -0 -0 -0 -0 -0 -0 -0 -0 0 0 0 0 0 0 -0 -0 -0 -0 0 0 0 0 0 0 0 0 0 0 0 0 0 0 0 0 0 0 0
-0 -0 -0 -0 -0 -0 -0 -0 -0 -0 -0 -0 0 0 0 0 0 0 -0 0 0 0 -0 -0 -0 0 0 0 0 0 0 0 0 0 0 0 0 0 0 0 0 0 0 0 0
-0 -0 -0 -0 -0 -0 -0 -0 -0 -0 0 0 0 0 0 0 0 -0 -0 0 0 0 0 0 0 0 0 0 0 0 -0 0 -0 -0 0 0 0 0 0 0 0 0 0 0 0
0 0 -0 -0 -0 -0 -0 -0 -0 -0 -0 -0 0 0 0 0 0 -0 -0 0 0 0 0 0 0 0 0 0 0 0 0 0 -0 0 0 0 0 0 0 0 0 0 0 0 0
-0 -0 -0 -0 -0 -0 -0 -0 0 0 -0 -0 -0 -0 -0 0 0 -0 -0 0 0 0 -0 0 0 0 0 0 0 0 0 0 0 0 0 0 0 -0 0 0 0 0 0 0 0
-0 -0 -0 -0 -0 -0 -0 -0 0 0 0 -0 -0 0 -0 0 -0 -0 -0 0 -0 0 0 0 0 0 0 0 0 0 0 0 0 0 0 0 0 0 0 0 0 0 0 0 0
-0 -0 0 0 -0 -0 0 0 -0 -0 0 0 0 0 -0 0 -0 -0 -0 -0 0 -0 0 0 0 -0 -0 0 0 0 0 0 0 0 0 0 0 0 0 0 0 0 0 0 0
0 0 -0 0 0 -0 -0 0 0 0 0 0 0 0 0 -0 -0 -0 -0 -0 -0 -0 -0 0 -0 -0 -0 -0 -0 -0 0 0 0 0 0 0 0 0 0 0 0 0 0 0 0
0 -0 -0 -0 0 0 0 0 0 0 -0 -0 -0 -0 -0 -0 -0 -0 -0 0 -0 0 0 -0 -0 -0 -0 -0 0 0 0 0 0 0 0 0 0 0 0 0 0 0 0 0 0
0 -0 -0 -0 0 0 0 0 0 0 0 -0 -0 0 -0 0 0 -0 -0 0 0 -0 0 0 -0 0 0 -0 0 0 0 0 0 0 0 0 0 0 0 0 0 0 0 0 0
0 -0 -0 -0 -0 0 0 0 0 -0 0 0 0 0 0 -0 0 -0 -0 -0 0 0 -0 -0 0 0 0 0 0 0 0 0 0 0 -0 0 0 0 0 0 0 0 0 0 0
0 -0 -0 -0 0 0 0 -0 -0 -0 0 0 -0 0 0 -0 0 0 -0 -0 -0 -0 -0 0 0 0 0 0 0 -0 0 0 -0 0 -0 0 0 0 0 0 0 0 0 0 0
0 -0 -0 -0 -0 -0 -0 -0 -0 0 0 -0 0 0 0 0 0 -0 -0 -0 0 0 -0 -0 0 0 0 0 -0 0 0 -0 -0 -0 -0 0 0 0 0 0 0 0 0 -0 -0
-0 -0 -0 -0 0 -0 -0 -0 0 0 0 0 0 -0 0 -0 0 -0 0 0 -0 -0 0 -0 0 -0 -0 -0 0 0 0 -0 0 -0 -0 0 0 0 0 0 0 0 0 0 -0
-0 0 -0 -0 0 -0 -0 0 0 0 0 0 0 0 0 0 -0 -0 0 0 -0 -0 -0 -0 0 0 -0 -0 -0 0 -0 -0 -0 -0 -0 0 0 0 0 0 0 0 0 -0 -0
-0 -0 -0 0 0 0 0 0 0 0 0 0 0 0 0 0 0 0 -0 -0 0 -0 -0 -0 -0 -0 -0 -0 -0 -0 -0 -0 -0 -0 0 0 0 0 0 0 0 0 0 -0 -0
-0 0 0 0 0 0 0 0 0 0 0 0 0 0 0 0 0 0 0 -0 0 -0 -0 -0 0 0 0 -0 -0 -0 -0 -0 -0 0 0 -0 0 0 0 0 0 0 0 -0 -0
0 0 0 0 0 0 0 0 0 0 0 0 0 0 0 0 0 0 0 0 0 0 -0 0 -0 0 0 0 0 0 0 0 0 -0 0 0 0 0 0 0 0 0 0 -0 -0
0 0 0 0 0 0 0 0 0 0 0 0 0 0 0 0 0 0 0 0 0 0 0 0 0 0 0 0 0 0 0 0 0 0 0 0 0 0 0 0 0 0 0 0 0
0 0 0 0 0 0 0 0 0 0 0 0 0 0 0 0 0 0 0 0 0 0 0 0 0 0 0 0 0 0 0 0 0 0 0 0 0 0 0 0 0 0 0 0 0
0 0 0 0 0 0 0 0 0 0 0 0 0 0 0 0 0 0 0 0 0 0 0 0 0 0 0 0 0 0 0 0 0 0 0 0 0 0 0 0 0 0 0 0 0
0 0 0 0 0 0 0 0 0 0 0 0 0 0 0 0 0 0 0 0 0 0 0 0 0 0 0 0 0 0 0 0 0 0 0 0 0 0 0 0 0 0 0 0 0
0 0 0 0 0 0 0 0 0 0 0 0 0 0 0 0 0 0 0 0 0 0 0 0 0 0 0 0 0 0 0 0 0 0 0 0 0 0 0 0 0 0 0 0 0
0 0 0 0 0 0 0 0 0 0 0 0 0 0 0 0 0 0 0 0 0 0 0 0 0 0 0 0 0 0 0 0 0 0 0 0 0 0 0 0 0 0 0 0 0
0 0 0 0 0 0 0 0 0 0 0 0 0 0 0 0 0 0 0 0 0 0 0 0 0 0 0 0 0 0 0 0 0 0 0 0 0 0 0 0 0 0 0 0 0
Wind_Speed_500mb
32 32 34 36 39 39 33 28 29 26 20 16 8 25 33 42 47 37 45 43 31 23 18 14 19 12 6 11 3 23 8 11 4 10 9 30 21 34 22 24 32 33 34 29 21
34 35 36 37 40 40 32 25 29 27 22 18 9 13 21 18 20 48 46 25 22 21 16 12 17 14 10 9 8 9 8 10 23 25 14 21 22 26 22 32 44 52 36 33 31
34 36 35 36 43 41 35 32 31 30 28 27 16 8 1 4 9 40 48 32 25 19 16 9 3 5 7 3 7 10 8 10 19 28 23 28 31 28 28 22 41 40 45 33 31
33 35 35 35 40 39 39 38 37 34 27 30 34 33 28 18 9 60 45 34 25 24 15 8 2 5 6 4 6 2 8 3 16 37 25 20 30 24 22 35 36 39 45 50 53
32 33 36 34 35 32 34 37 38 40 33 30 24 18 16 33 30 54 38 38 28 24 20 13 9 8 7 5 11 4 14 14 15 25 14 24 42 37 44 38 41 47 58 58 56
32 30 33 31 30 28 26 26 30 34 30 33 39 22 15 38 42 41 32 33 32 22 20 18 9 9 10 8 6 8 11 5 5 9 31 15 14 15 33 47 44 36 56 56 58
32 31 32 29 25 22 25 23 24 23 24 36 37 22 74 32 42 40 33 23 31 28 19 18 20 17 10 3 9 6 6 11 22 23 15 33 19 15 15 29 48 60 43 47 58
31 29 31 29 24 18 18 19 19 31 37 13 12 19 26 40 47 39 44 24 27 31 24 31 28 10 19 9 6 7 1 6 29 37 22 30 17 39 46 50 54 61 61 63 66
31 30 31 28 22 21 14 14 8 1 24 38 22 13 16 48 81 54 45 45 22 23 29 27 17 50 40 2 5 19 12 16 8 41 24 12 11 37 52 52 51 56 60 61 63
31 30 28 28 14 5 30 23 52 9 6 17 47 17 44 51 51 57 44 40 20 24 24 32 24 25 31 27 8 13 12 14 19 20 26 14 23 29 45 48 48 52 56 59 62
32 31 24 32 24 8 9 3 7 23 75 40 27 12 21 50 23 74 34 46 49 27 18 51 29 26 28 27 11 13 16 13 12 24 20 11 23 21 40 48 49 52 54 57 60
30 30 24 29 26 17 2 10 26 26 35 42 33 44 23 40 34 90 55 31 46 36 19 16 33 19 17 30 20 14 17 15 15 27 14 13 24 25 35 43 46 46 51 55 58
30 30 30 13 31 25 22 35 36 24 12 23 35 36 38 29 28 66 56 23 21 27 33 27 23 28 24 30 28 24 19 19 12 24 5 13 16 23 33 45 42 47 46 51 57
32 33 32 18 20 24 26 23 18 11 8 26 32 29 50 7 12 51 49 19 18 18 10 18 26 25 19 22 26 8 28 26 16 9 3 9 1 12 16 26 36 41 46 49 55
32 31 29 37 22 29 18 19 16 4 10 20 17 25 29 27 22 52 45 24 18 24 2 9 20 25 18 16 18 9 40 26 17 3 5 6 4 10 14 17 22 35 44 47 50
30 29 32 25 37 27 15 14 9 10 2 7 13 22 16 34 21 35 35 26 13 6 26 16 14 12 13 26 19 32 27 5 8 6 1 6 7 3 6 8 16 31 43 48 51
24 23 31 36 34 26 14 6 9 12 4 11 8 12 9 16 18 24 22 30 17 13 16 7 13 9 34 12 17 34 21 7 9 7 6 16 8 6 11 10 15 23 39 48 53
22 20 26 34 31 25 14 5 17 2 2 3 6 8 9 16 10 16 10 12 24 17 5 11 7 15 23 9 10 14 8 6 3 6 9 23 9 6 13 9 8 29 44 42 46
5 21 26 27 27 20 11 13 4 3 2 6 8 5 5 7 7 7 12 8 13 21 9 10 1 4 14 14 14 14 10 6 2 4 3 8 5 9 11 10 27 38 39 43 47
1 6 25 19 22 16 13 10 4 6 3 5 5 6 6 8 9 11 8 8 4 15 17 6 8 5 7 7 7 8 7 4 5 7 10 9 10 3 6 14 16 27 40 44 45
3 4 18 13 10 16 8 6 7 8 3 5 3 4 7 6 5 2 6 5 6 9 9 8 5 6 9 7 7 6 4 6 4 3 5 9 9 13 13 5 8 21 31 39 41
2 3 13 10 12 11 5 9 9 12 4 5 1 2 3 5 4 3 3 6 6 4 4 6 1 7 6 12 6 3 4 4 7 9 5 8 13 22 10 6 19 31 36 35 42
4 3 9 7 7 5 2 6 3 7 9 7 7 2 1 2 2 3 3 5 9 3 3 6 2 7 4 4 2 3 6 4 7 3 17 3 12 11 20 21 40 43 49 45 40
2 4 10 15 17 13 10 6 6 5 8 6 6 10 5 2 6 4 5 7 12 12 10 3 5 10 9 9 7 8 15 17 12 8 21 24 57 38 41 35 52 58 52 39 30
5 4 5 4 5 14 8 11 8 9 8 15 7 11 10 5 4 5 6 8 19 19 12 3 8 9 12 26 24 26 32 37 31 33 27 53 47 47 45 44 68 65 36 31 40
3 7 9 8 11 13 3 10 14 7 15 7 11 16 16 12 12 13 11 9 8 11 8 13 7 5 8 28 23 29 38 40 38 40 43 53 55 55 68 61 41 44 21 31 50
7 14 10 13 11 6 7 9 16 21 20 12 23 10 13 22 24 16 17 18 16 9 9 5 4 4 8 4 4 13 19 23 13 17 20 32 38 43 27 34 37 21 32 50 60
Wind_Direction_500mb
27 24 19 17 16 14 19 28 26 22 20 26 92 103 96 81 56 47 25 350 344 357 356 355 14 320 286 45 30 354 22 227 252 47 23 20 10 16 352 9 22 68 48 21 332
24 22 20 22 22 17 23 29 28 29 31 33 68 146 121 75 70 28 10 1 350 352 8 353 341 10 66 92 55 71 19 333 342 36 31 25 6 17 357 347 13 4 5 10 350
25 23 22 25 25 26 37 49 43 43 47 44 47 74 86 79 68 355 3 6 4 356 8 4 351 38 58 64 133 139 138 319 337 13 3 347 357 352 353 8 4 6 7 357 352
29 24 25 27 30 39 57 58 56 55 61 50 69 78 70 18 46 343 358 5 10 25 3 344 348 259 181 194 168 80 159 170 322 332 345 338 310 325 11 37 33 33 27 29 23
30 24 23 29 33 48 64 61 66 64 65 55 55 64 58 56 10 345 6 16 10 39 19 13 360 345 324 98 138 211 185 167 248 260 285 337 16 19 35 15 17 34 30 23 21
29 29 22 25 32 46 59 68 74 60 64 68 61 70 99 58 355 354 1 8 21 32 27 44 22 356 321 356 355 338 342 313 283 348 39 19 76 35 340 0 5 2 25 36 29
29 29 27 19 28 51 66 72 77 39 46 65 64 42 58 42 6 5 8 15 27 31 35 39 57 51 341 128 354 315 313 82 43 32 31 346 84 119 352 348 28 27 29 28 21
32 32 31 24 41 60 74 63 74 74 46 51 45 19 74 11 17 17 27 43 53 37 55 58 40 30 12 307 221 339 265 98 63 34 8 347 85 34 42 58 37 36 31 32 29
33 32 34 32 45 67 95 76 40 7 34 55 67 66 20 6 22 19 29 22 57 58 41 36 26 41 14 293 90 25 21 35 77 38 4 357 29 42 49 53 48 41 33 31 26
32 33 39 41 44 94 106 63 48 58 14 27 45 66 17 350 6 18 44 38 35 57 45 46 54 46 29 31 42 351 1 356 22 22 350 18 75 55 50 50 47 39 32 26 22
34 31 33 34 38 50 212 307 46 36 56 67 34 63 357 13 18 23 47 40 46 45 75 54 63 34 36 5 30 9 27 24 334 25 342 343 98 71 58 48 39 34 27 22 20
36 34 39 40 34 41 75 116 120 128 81 43 45 35 18 16 10 13 31 42 31 44 121 55 40 17 21 17 347 71 30 14 322 341 323 313 112 87 67 59 48 36 29 23 16
33 33 34 62 39 55 74 113 120 117 91 31 25 16 11 8 34 5 10 14 31 38 62 66 18 357 32 26 10 75 32 350 315 318 240 32 133 121 84 61 48 40 31 24 19
35 32 35 49 35 58 82 127 132 113 83 1 4 18 353 58 38 7 14 18 31 24 30 53 22 10 44 37 0 321 356 321 313 9 320 345 117 97 67 56 42 35 29 21 14
33 35 38 44 56 61 87 114 141 109 55 341 2 6 14 58 339 5 12 37 22 22 142 57 16 15 24 354 338 315 313 290 274 256 61 354 77 102 81 33 30 27 22 18 13
33 45 36 40 44 50 85 114 109 49 33 359 6 360 17 24 17 5 26 39 32 26 85 88 70 38 337 321 54 327 322 257 119 124 95 196 73 92 33 26 17 13 11 9 5
39 50 36 34 27 28 54 92 43 79 289 332 341 342 60 2 15 8 41 46 31 9 16 354 44 84 14 342 357 358 351 2 10 14 206 25 352 129 125 67 32 10 6 360 357
40 48 37 34 24 22 30 60 66 304 8 58 321 291 55 4 36 24 44 35 24 4 13 359 343 21 1 23 325 326 6 87 243 331 296 306 251 175 135 99 345 9 1 358 351
58 46 37 29 21 20 43 53 109 113 53 359 267 18 55 37 18 23 55 42 31 15 45 6 49 76 48 347 1 320 42 342 309 234 13 245 77 142 175 227 12 7 3 359 349
247 1 22 22 20 30 69 110 127 72 126 228 47 23 9 21 26 26 40 4 64 31 348 56 298 50 319 278 95 54 5 55 350 356 306 285 290 230 199 29 358 3 2 356 346
133 67 7 5 12 56 82 91 120 131 111 5 95 43 81 20 37 72 359 121 11 22 345 33 107 298 302 53 11 328 65 27 121 178 222 305 260 175 123 104 350 357 344 345 340
123 46 5 12 44 53 85 145 133 144 141 119 70 54 23 85 5 82 41 86 120 345 15 85 20 285 288 45 320 38 57 70 108 302 281 272 268 277 177 105 31 353 336 331 331
77 27 6 27 110 95 126 101 145 141 170 154 152 80 142 146 72 300 99 92 172 306 83 6 228 315 7 79 84 230 184 228 104 50 217 202 257 73 184 290 354 338 322 312 313
52 31 35 66 95 124 143 150 150 182 144 152 124 135 129 219 139 201 215 220 207 196 167 129 267 196 211 239 335 279 293 273 168 205 269 242 275 278 283 294 319 312 307 313 325
88 88 107 67 54 114 145 143 139 166 203 178 191 188 160 156 224 195 262 256 220 207 204 203 244 236 261 280 289 287 280 269 257 258 255 274 268 279 282 288 290 290 319 329 329
103 124 97 101 126 119 91 212 175 167 160 210 219 192 182 166 185 196 171 224 245 141 164 170 275 89 257 263 267 273 265 263 265 267 267 269 277 276 283 283 282 311 331 330 323
169 155 140 155 158 146 202 184 195 161 209 178 205 230 209 207 228 250 226 227 235 193 186 171 217 357 265 159 284 295 255 242 236 242 253 274 287 301 288 292 299 311 331 320 307
Wind_Speed_850mb
32 32 34 36 39 39 33 28 29 26 20 16 8 25 33 42 47 37 45 43 31 23 18 14 19 12 6 11 3 23 8 11 4 10 9 30 21 34 22 24 32 33 34 29 21
34 35 36 37 40 40 32 25 29 27 22 18 9 13 21 18 20 48 46 25 22 21 16 12 17 14 10 9 8 9 8 10 23 25 14 21 22 26 22 32 44 52 36 33 31
34 36 35 36 43 41 35 32 31 30 28 27 16 8 1 4 9 40 48 32 25 19 16 9 3 5 7 3 7 10 8 10 19 28 23 28 31 28 28 22 41 40 45 33 31
33 35 35 35 40 39 39 38 37 34 27 30 34 33 28 18 9 60 45 34 25 24 15 8 2 5 6 4 6 2 8 3 16 37 25 20 30 24 22 35 36 39 45 50 53
32 33 36 34 35 32 34 37 38 40 33 30 24 18 16 33 30 54 38 38 28 24 20 13 9 8 7 5 11 4 14 14 15 25 14 24 42 37 44 38 41 47 58 58 56
32 30 33 31 30 28 26 26 30 34 30 33 39 22 15 38 42 41 32 33 32 22 20 18 9 9 10 8 6 8 11 5 5 9 31 15 14 15 33 47 44 36 56 56 58
32 31 32 29 25 22 25 23 24 23 24 36 37 22 74 32 42 40 33 23 31 28 19 18 20 17 10 3 9 6 6 11 22 23 15 33 19 15 15 29 48 60 43 47 58
31 29 31 29 24 18 18 19 19 31 37 13 12 19 26 40 47 39 44 24 27 31 24 31 28 10 19 9 6 7 1 6 29 37 22 30 17 39 46 50 54 61 61 63 66
31 30 31 28 22 21 14 14 8 1 24 38 22 13 16 48 81 54 45 45 22 23 29 27 17 50 40 2 5 19 12 16 8 41 24 12 11 37 52 52 51 56 60 61 63
31 30 28 28 14 5 30 23 52 9 6 17 47 17 44 51 51 57 44 40 20 24 24 32 24 25 31 27 8 13 12 14 19 20 26 14 23 29 45 48 48 52 56 59 62
32 31 24 32 24 8 9 3 7 23 75 40 27 12 21 50 23 74 34 46 49 27 18 51 29 26 28 27 11 13 16 13 12 24 20 11 23 21 40 48 49 52 54 57 60
30 30 24 29 26 17 2 10 26 26 35 42 33 44 23 40 34 90 55 31 46 36 19 16 33 19 17 30 20 14 17 15 15 27 14 13 24 25 35 43 46 46 51 55 58
30 30 30 13 31 25 22 35 36 24 12 23 35 36 38 29 28 66 56 23 21 27 33 27 23 28 24 30 28 24 19 19 12 24 5 13 16 23 33 45 42 47 46 51 57
32 33 32 18 20 24 26 23 18 11 8 26 32 29 50 7 12 51 49 19 18 18 10 18 26 25 19 22 26 8 28 26 16 9 3 9 1 12 16 26 36 41 46 49 55
32 31 29 37 22 29 18 19 16 4 10 20 17 25 29 27 22 52 45 24 18 24 2 9 20 25 18 16 18 9 40 26 17 3 5 6 4 10 14 17 22 35 44 47 50
30 29 32 25 37 27 15 14 9 10 2 7 13 22 16 34 21 35 35 26 13 6 26 16 14 12 13 26 19 32 27 5 8 6 1 6 7 3 6 8 16 31 43 48 51
24 23 31 36 34 26 14 6 9 12 4 11 8 12 9 16 18 24 22 30 17 13 16 7 13 9 34 12 17 34 21 7 9 7 6 16 8 6 11 10 15 23 39 48 53
22 20 26 34 31 25 14 5 17 2 2 3 6 8 9 16 10 16 10 12 24 17 5 11 7 15 23 9 10 14 8 6 3 6 9 23 9 6 13 9 8 29 44 42 46
5 21 26 27 27 20 11 13 4 3 2 6 8 5 5 7 7 7 12 8 13 21 9 10 1 4 14 14 14 14 10 6 2 4 3 8 5 9 11 10 27 38 39 43 47
1 6 25 19 22 16 13 10 4 6 3 5 5 6 6 8 9 11 8 8 4 15 17 6 8 5 7 7 7 8 7 4 5 7 10 9 10 3 6 14 16 27 40 44 45
3 4 18 13 10 16 8 6 7 8 3 5 3 4 7 6 5 2 6 5 6 9 9 8 5 6 9 7 7 6 4 6 4 3 5 9 9 13 13 5 8 21 31 39 41
2 3 13 10 12 11 5 9 9 12 4 5 1 2 3 5 4 3 3 6 6 4 4 6 1 7 6 12 6 3 4 4 7 9 5 8 13 22 10 6 19 31 36 35 42
4 3 9 7 7 5 2 6 3 7 9 7 7 2 1 2 2 3 3 5 9 3 3 6 2 7 4 4 2 3 6 4 7 3 17 3 12 11 20 21 40 43 49 45 40
2 4 10 15 17 13 10 6 6 5 8 6 6 10 5 2 6 4 5 7 12 12 10 3 5 10 9 9 7 8 15 17 12 8 21 24 57 38 41 35 52 58 52 39 30
5 4 5 4 5 14 8 11 8 9 8 15 7 11 10 5 4 5 6 8 19 19 12 3 8 9 12 26 24 26 32 37 31 33 27 53 47 47 45 44 68 65 36 31 40
3 7 9 8 11 13 3 10 14 7 15 7 11 16 16 12 12 13 11 9 8 11 8 13 7 5 8 28 23 29 38 40 38 40 43 53 55 55 68 61 41 44 21 31 50
7 14 10 13 11 6 7 9 16 21 20 12 23 10 13 22 24 16 17 18 16 9 9 5 4 4 8 4 4 13 19 23 13 17 20 32 38 43 27 34 37 21 32 50 60
Wind_Direction_850mb
27 24 19 17 16 14 19 28 26 22 20 26 92 103 96 81 56 47 25 350 344 357 356 355 14 320 286 45 30 354 22 227 252 47 23 20 10 16 352 9 22 68 48 21 332
24 22 20 22 22 17 23 29 28 29 31 33 68 146 121 75 70 28 10 1 350 352 8 353 341 10 66 92 55 71 19 333 342 36 31 25 6 17 357 347 13 4 5 10 350
25 23 22 25 25 26 37 49 43 43 47 44 47 74 86 79 68 355 3 6 4 356 8 4 351 38 58 64 133 139 138 319 337 13 3 347 357 352 353 8 4 6 7 357 352
29 24 25 27 30 39 57 58 56 55 61 50 69 78 70 18 46 343 358 5 10 25 3 344 348 259 181 194 168 80 159 170 322 332 345 338 310 325 11 37 33 33 27 29 23
30 24 23 29 33 48 64 61 66 64 65 55 55 64 58 56 10 345 6 16 10 39 19 13 360 345 324 98 138 211 185 167 248 260 285 337 16 19 35 15 17 34 30 23 21
29 29 22 25 32 46 59 68 74 60 64 68 61 70 99 58 355 354 1 8 21 32 27 44 22 356 321 356 355 338 342 313 283 348 39 19 76 35 340 0 5 2 25 36 29
29 29 27 19 28 51 66 72 77 39 46 65 64 42 58 42 6 5 8 15 27 31 35 39 57 51 341 128 354 315 313 82 43 32 31 346 84 119 352 348 28 27 29 28 21
32 32 31 24 41 60 74 63 74 74 46 51 45 19 74 11 17 17 27 43 53 37 55 58 40 30 12 307 221 339 265 98 63 34 8 347 85 34 42 58 37 36 31 32 29
33 32 34 32 45 67 95 76 40 7 34 55 67 66 20 6 22 19 29 22 57 58 41 36 26 41 14 293 90 25 21 35 77 38 4 357 29 42 49 53 48 41 33 31 26
32 33 39 41 44 94 106 63 48 58 14 27 45 66 17 350 6 18 44 38 35 57 45 46 54 46 29 31 42 351 1 356 22 22 350 18 75 55 50 50 47 39 32 26 22
34 31 33 34 38 50 212 307 46 36 56 67 34 63 357 13 18 23 47 40 46 45 75 54 63 34 36 5 30 9 27 24 334 25 342 343 98 71 58 48 39 34 27 22 20
36 34 39 40 34 41 75 116 120 128 81 43 45 35 18 16 10 13 31 42 31 44 121 55 40 17 21 17 347 71 30 14 322 341 323 313 112 87 67 59 48 36 29 23 16
33 33 34 62 39 55 74 113 120 117 91 31 25 16 11 8 34 5 10 14 31 38 62 66 18 357 32 26 10 75 32 350 315 318 240 32 133 121 84 61 48 40 31 24 19
35 32 35 49 35 58 82 127 132 113 83 1 4 18 353 58 38 7 14 18 31 24 30 53 22 10 44 37 0 321 356 321 313 9 320 345 117 97 67 56 42 35 29 21 14
33 35 38 44 56 61 87 114 141 109 55 341 2 6 14 58 339 5 12 37 22 22 142 57 16 15 24 354 338 315 313 290 274 256 61 354 77 102 81 33 30 27 22 18 13
33 45 36 40 44 50 85 114 109 49 33 359 6 360 17 24 17 5 26 39 32 26 85 88 70 38 337 321 54 327 322 257 119 124 95 196 73 92 33 26 17 13 11 9 5
39 50 36 34 27 28 54 92 43 79 289 332 341 342 60 2 15 8 41 46 31 9 16 354 44 84 14 342 357 358 351 2 10 14 206 25 352 129 125 67 32 10 6 360 357
40 48 37 34 24 22 30 60 66 304 8 58 321 291 55 4 36 24 44 35 24 4 13 359 343 21 1 23 325 326 6 87 243 331 296 306 251 175 135 99 345 9 1 358 351
58 46 37 29 21 20 43 53 109 113 53 359 267 18 55 37 18 23 55 42 31 15 45 6 49 76 48 347 1 320 42 342 309 234 13 245 77 142 175 227 12 7 3 359 349
247 1 22 22 20 30 69 110 127 72 126 228 47 23 9 21 26 26 40 4 64 31 348 56 298 50 319 278 95 54 5 55 350 356 306 285 290 230 199 29 358 3 2 356 346
133 67 7 5 12 56 82 91 120 131 111 5 95 43 81 20 37 72 359 121 11 22 345 33 107 298 302 53 11 328 65 27 121 178 222 305 260 175 123 104 350 357 344 345 340
123 46 5 12 44 53 85 145 133 144 141 119 70 54 23 85 5 82 41 86 120 345 15 85 20 285 288 45 320 38 57 70 108 302 281 272 268 277 177 105 31 353 336 331 331
77 27 6 27 110 95 126 101 145 141 170 154 152 80 142 146 72 300 99 92 172 306 83 6 228 315 7 79 84 230 184 228 104 50 217 202 257 73 184 290 354 338 322 312 313
52 31 35 66 95 124 143 150 150 182 144 152 124 135 129 219 139 201 215 220 207 196 167 129 267 196 211 239 335 279 293 273 168 205 269 242 275 278 283 294 319 312 307 313 325
88 88 107 67 54 114 145 143 139 166 203 178 191 188 160 156 224 195 262 256 220 207 204 203 244 236 261 280 289 287 280 269 257 258 255 274 268 279 282 288 290 290 319 329 329
103 124 97 101 126 119 91 212 175 167 160 210 219 192 182 166 185 196 171 224 245 141 164 170 275 89 257 263 267 273 265 263 265 267 267 269 277 276 283 283 282 311 331 330 323
169 155 140 155 158 146 202 184 195 161 209 178 205 230 209 207 228 250 226 227 235 193 186 171 217 357 265 159 284 295 255 242 236 242 253 274 287 301 288 292 299 311 331 320 307